This demonstration page uses our WeatherBlox Daily Observations layout. Learn more.

36.17497, -115.13722

Hourly Observations for April 17, 2015

Temp ( °F °C ) Dew Point ( °F °C ) Humidity (%) Winds ( mph kmh ) Pressure ( in mb ) Visibility ( mi km ) Precip ( " mm )
12:53 am 00:53 Clear 61 16.1 16 -8.9 17 17 ENE 9 15 30.09 1019 10 16.0934 0 0
1:53 am 01:53 Clear 62 16.7 17 -8.3 17 17 VRB 3 6 30.1 1019 10 16.0934 0 0
2:53 am 02:53 Clear 59 15 19 -7.2 21 21 VRB 3 6 30.09 1019 10 16.0934 0 0
3:53 am 03:53 Clear 55 12.8 21 -6.1 26 26 WNW 5 7 30.08 1019 10 16.0934 0 0
4:53 am 04:53 Clear 53 11.7 22 -5.6 30 30 NNE 6 9 30.09 1019 10 16.0934 0 0
5:53 am 05:53 Clear 52 11.1 23 -5 32 32 NNW 8 13 30.1 1019 10 16.0934 0 0
6:53 am 06:53 Sunny 55 12.8 21 -6.1 26 26 NW 6 9 30.11 1020 10 16.0934 0 0
7:53 am 07:53 Sunny 59 15 19 -7.2 21 21 WNW 9 15 30.11 1020 10 16.0934 0 0
8:53 am 08:53 Sunny 64 17.8 19 -7.2 18 18 VRB 3 6 30.1 1019 10 16.0934 0 0
9:53 am 09:53 Sunny 68 20 17 -8.3 14 14 VRB 5 7 30.09 1019 10 16.0934 0 0
10:53 am 10:53 Sunny 70 21.1 18 -7.8 14 14 E 13 20 30.08 1019 10 16.0934 0 0
11:53 am 11:53 Sunny 73 22.8 15 -9.4 11 11 VRB 6 9 30.05 1018 10 16.0934 0 0
12:53 pm 12:53 Sunny 75 23.9 12 -11.1 9 9 N 12 19 30.01 1016 10 16.0934 0 0
1:53 pm 13:53 Sunny 79 26.1 7 -13.9 6 6 NW 21 33 29.98 1015 10 16.0934 0 0
2:53 pm 14:53 Sunny 79 26.1 7 -13.9 6 6 NW 15 24 29.96 1015 10 16.0934 0 0
3:53 pm 15:53 Sunny 80 26.7 6 -14.4 6 6 N 10 17 29.93 1014 10 16.0934 0 0
4:53 pm 16:53 Sunny 80 26.7 8 -13.3 6 6 N 13 20 29.92 1013 10 16.0934 0 0
5:53 pm 17:53 Sunny 80 26.7 5 -15 5 5 VRB 6 9 29.92 1013 10 16.0934 0 0
6:53 pm 18:53 Sunny 79 26.1 6 -14.4 6 6 N 8 13 29.9 1013 10 16.0934 0 0
7:53 pm 19:53 Clear 75 23.9 11 -11.7 8 8 SW 5 7 29.91 1013 10 16.0934 0 0
8:53 pm 20:53 Clear 73 22.8 14 -10 10 10 WSW 6 9 29.91 1013 10 16.0934 0 0
9:53 pm 21:53 Clear 69 20.6 15 -9.4 12 12 NNW 8 13 29.93 1014 10 16.0934 0 0
10:53 pm 22:53 Clear 66 18.9 15 -9.4 14 14 NW 6 9 29.93 1014 10 16.0934 0 0
11:53 pm 23:53 Clear 63 17.2 16 -8.9 16 16 N 6 9 29.94 1014 10 16.0934 0 0

Powered by AerisWeather